Regional Weather Roundup
Issued by NWS

Home | Current Version | Previous Version | Graphics & Text | Print | Product List | Glossary On
Versions: 1 2 3 4 5 6 7 8 9 10 11 12 13 14 15 16 17 18 19 20 21 22 23 24 25 26 27 28 29 30 31 32 33 34 35 36 37 38 39 40 41 42 43 44 45 46 47 48 49 50
196
ASUS43 KLSX 170507
RWRMO

WEATHER SUMMARY FOR MISSOURI
NATIONAL WEATHER SERVICE SPRINGFIELD MO
1100 PM CST SAT DEC 16 2017

NOTE: "FAIR" INDICATES FEW OR NO CLOUDS BELOW 12,000 FEET WITH NO
       SIGNIFICANT WEATHER AND/OR OBSTRUCTIONS TO VISIBILITY.
       CURRENT SKY AND/OR WEATHER CONDITIONS ARE NOT AVAILABLE FOR
       CHILLICOTHE AND FARMINGTON.

MOZ001>031-035>038-043-044-053-054-170600-
...NORTHERN AND WESTERN MISSOURI...

CITY           SKY/WX    TMP DP  RH WIND       PRES   REMARKS
KANSAS CTY INT CLOUDY    47  27  45 S12       29.96S
KANSAS C DTWN  CLOUDY    50  26  39 S7        29.97S
LEE`S SUMMIT   MOCLDY    48  27  44 S10       29.98S
ST JOSEPH      CLOUDY    34  26  72 CALM      29.97R
CHILLICOTHE      N/A     42  26  53 S5        30.00R
KIRKSVILLE     CLOUDY    42  30  62 SW5       30.00R

$$
MOZ066>068-077>081-088>096-101>105-170600-
...SOUTHWEST MISSOURI...

CITY           SKY/WX    TMP DP  RH WIND       PRES   REMARKS
SPRINGFIELD    CLOUDY    49  27  42 S10       30.03S
JOPLIN         CLOUDY    51  27  39 S12       30.00F
BRANSON        CLOUDY    46  27  46 CALM      30.05S

$$
MOZ032>034-039>042-045>050-055>058-069>072-170600-
...CENTRAL MISSOURI...

CITY           SKY/WX    TMP DP  RH WIND       PRES   REMARKS
COLUMBIA       CLOUDY    45  26  47 S9        30.03R
JEFFERSON CITY CLOUDY    48  26  42 SE6       30.05R
ROLLA          CLOUDY    45  28  51 S15       30.06R
SEDALIA        MOCLDY    50  28  42 S9        30.02S
WHITEMAN AFB   CLOUDY    45  27  49 SW9       29.96S
WARRENSBURG    CLOUDY    46  27  46 S8        30.00S
OSAGE BEACH    CLOUDY    45  26  47 S7        30.06R

$$
MOZ051-052-059>065-170600-
...EAST CENTRAL MISSOURI...

CITY           SKY/WX    TMP DP  RH WIND       PRES   REMARKS
ST LOUIS INTL  CLOUDY    47  29  49 S6        30.06R
SPIRIT OF STL  CLOUDY    42  28  57 E3        30.05S
ST CHARLES     CLOUDY    39  28  64 E7        30.06R

$$
MOZ072>076-082>087-097>100-106>115-170600-
...SOUTH CENTRAL AND SOUTHEAST MISSOURI...

CITY           SKY/WX    TMP DP  RH WIND       PRES   REMARKS
CAPE GIRARDEAU PTCLDY    45  31  58 S13       30.15S
FARMINGTON     CLOUDY    43  29  57 S9        30.10R
POPLAR BLUFF   CLOUDY    44  33  65 S8        30.14S
WEST PLAINS    MOCLDY    46  28  49 S7        30.08F

$$



USA.gov is the U.S. government's official web portal to all federal, state and local government web resources and services.